Time,TemperatureF,DewpointF,PressureIn,WindDirection,WindDirectionDegrees,WindSpeedMPH,WindSpeedGustMPH,Humidity,HourlyPrecipIn,Conditions,Clouds,dailyrainin,SoftwareType,DateUTC
2013-03-06 00:00:00,44.0,-99.9,-100.00,NNW,334,5.0,-999.0,-999,-99.99,,,-99.99,,2013-03-06 08:00:00,
2013-03-06 00:52:00,44.0,-99.9,-100.00,NNW,334,5.0,-999.0,-999,-99.99,,,-99.99,,2013-03-06 08:52:00,
2013-03-06 01:00:00,44.0,-99.9,-100.00,NNW,336,3.0,-999.0,-999,-99.99,,,-99.99,,2013-03-06 09:00:00,
2013-03-06 03:00:00,43.0,-99.9,-100.00,NNW,329,5.0,-999.0,-999,-99.99,,,-99.99,,2013-03-06 11:00:00,
2013-03-06 03:53:00,43.0,-99.9,-100.00,NNW,329,5.0,-999.0,-999,-99.99,,,-99.99,,2013-03-06 11:53:00,
2013-03-06 04:00:00,43.0,-99.9,-100.00,NNW,328,5.0,-999.0,-999,-99.99,,,-99.99,,2013-03-06 12:00:00,
2013-03-06 05:00:00,42.0,-99.9,-100.00,NNW,329,5.0,-999.0,-999,-99.99,,,-99.99,,2013-03-06 13:00:00,
2013-03-06 06:00:00,43.0,-99.9,-100.00,NNW,341,5.0,-999.0,-999,-99.99,,,-99.99,,2013-03-06 14:00:00,
2013-03-06 07:00:00,43.0,-99.9,-100.00,NNW,342,6.0,-999.0,-999,-99.99,,,-99.99,,2013-03-06 15:00:00,
2013-03-06 08:00:00,44.0,-99.9,-100.00,North,350,6.0,-999.0,-999,-99.99,,,-99.99,,2013-03-06 16:00:00,
2013-03-06 09:00:00,45.0,-99.9,-100.00,NNW,344,5.0,-999.0,-999,-99.99,,,-99.99,,2013-03-06 17:00:00,
2013-03-06 10:00:00,45.0,-99.9,-100.00,NNW,335,6.0,-999.0,-999,-99.99,,,-99.99,,2013-03-06 18:00:00,
2013-03-06 11:00:00,44.0,-99.9,-100.00,NNW,337,5.0,-999.0,-999,-99.99,,,-99.99,,2013-03-06 19:00:00,
2013-03-06 12:00:00,44.0,-99.9,-100.00,NNW,333,6.0,-999.0,-999,-99.99,,,-99.99,,2013-03-06 20:00:00,
2013-03-06 13:00:00,44.0,-99.9,-100.00,NNW,329,6.0,-999.0,-999,-99.99,,,-99.99,,2013-03-06 21:00:00,
2013-03-06 14:00:00,44.0,-99.9,-100.00,NNW,327,6.0,-999.0,-999,-99.99,,,-99.99,,2013-03-06 22:00:00,
2013-03-06 15:00:00,43.0,-99.9,-100.00,NNW,333,3.0,-999.0,-999,-99.99,,,-99.99,,2013-03-06 23:00:00,
2013-03-06 16:00:00,43.0,-99.9,-100.00,NNW,330,3.0,-999.0,-999,-99.99,,,-99.99,,2013-03-07 00:00:00,
2013-03-06 17:00:00,43.0,-99.9,-100.00,NNW,333,2.0,-999.0,-999,-99.99,,,-99.99,,2013-03-07 01:00:00,
2013-03-06 18:00:00,43.0,-99.9,-100.00,North,10,2.0,-999.0,-999,-99.99,,,-99.99,,2013-03-07 02:00:00,
2013-03-06 20:00:00,43.0,-99.9,-100.00,ESE,110,2.0,-999.0,-999,-99.99,,,-99.99,,2013-03-07 04:00:00,
2013-03-06 20:52:00,43.0,-99.9,-100.00,ESE,110,2.0,-999.0,-999,-99.99,,,-99.99,,2013-03-07 04:52:00,
2013-03-06 21:00:00,43.0,-99.9,-100.00,SE,135,2.0,-999.0,-999,-99.99,,,-99.99,,2013-03-07 05:00:00,
2013-03-06 22:00:00,43.0,-99.9,-100.00,ESE,113,2.0,-999.0,-999,-99.99,,,-99.99,,2013-03-07 06:00:00,
2013-03-06 22:52:00,43.0,-99.9,-100.00,ESE,113,2.0,-999.0,-999,-99.99,,,-99.99,,2013-03-07 06:52:00,
2013-03-06 23:00:00,43.0,-99.9,-100.00,SSE,147,3.0,-999.0,-999,-99.99,,,-99.99,,2013-03-07 07:00:00,